• In Kazakhstan
  • List of Countries
  • For 7 days
  • Water Temperature
  • Weather Map
  • News
  • Weather Widgets
  • user-avatar
    Login

    Hourly Weather Potosi

    Today, 17 October, Thursday

    Time Temperature Precipitation Wind Pressure Humidity
    00:00 +9°C° 0.1 mm 1 mps 468 mmHg 68%
    01:00 +9°C° 0.1 mm 1 mps 467 mmHg 68%
    02:00 +9°C° 0 mm 1 mps 467 mmHg 67%
    03:00 +9°C° 0 mm 1 mps 467 mmHg 64%
    04:00 +8°C° 0 mm 1 mps 467 mmHg 61%
    05:00 +8°C° 0 mm 1 mps 466 mmHg 57%
    06:00 +8°C° 0 mm 1 mps 467 mmHg 51%
    07:00 +9°C° 0 mm 1 mps 468 mmHg 44%
    08:00 +10°C° 0 mm 1 mps 469 mmHg 37%
    09:00 +10°C° 0 mm 2 mps 469 mmHg 34%
    10:00 +13°C° 0 mm 2 mps 470 mmHg 32%
    11:00 +14°C° 0 mm 2 mps 470 mmHg 30%
    12:00 +14°C° 0 mm 2 mps 470 mmHg 31%
    13:00 +15°C° 0 mm 2 mps 470 mmHg 32%
    14:00 +16°C° 0 mm 3 mps 470 mmHg 33%
    15:00 +14°C° 0.6 mm 3 mps 469 mmHg 37%
    16:00 +13°C° 0.6 mm 4 mps 468 mmHg 42%
    17:00 +12°C° 0.6 mm 4 mps 467 mmHg 46%
    18:00 +12°C° 0.8 mm 4 mps 467 mmHg 51%
    19:00 +11°C° 0.8 mm 4 mps 467 mmHg 56%
    20:00 +10°C° 0.8 mm 4 mps 467 mmHg 61%
    21:00 +8°C° 0.2 mm 4 mps 467 mmHg 64%
    22:00 +8°C° 0.2 mm 3 mps 467 mmHg 67%
    23:00 +8°C° 0.2 mm 3 mps 467 mmHg 71%

    Tomorrow, 18 October, Friday

    Time Temperature Precipitation Wind Pressure Humidity
    00:00 +8°C° 0.1 mm 2 mps 467 mmHg 71%
    01:00 +8°C° 0.1 mm 2 mps 467 mmHg 71%
    02:00 +8°C° 0.1 mm 1 mps 467 mmHg 72%
    03:00 +8°C° 0.1 mm 1 mps 467 mmHg 72%
    04:00 +8°C° 0.1 mm 1 mps 467 mmHg 72%
    05:00 +7°C° 0.1 mm 2 mps 467 mmHg 73%
    06:00 +7°C° 0.1 mm 2 mps 467 mmHg 71%
    07:00 +8°C° 0.1 mm 2 mps 468 mmHg 69%
    08:00 +8°C° 0.1 mm 2 mps 468 mmHg 68%
    09:00 +9°C° 0.2 mm 3 mps 469 mmHg 62%
    10:00 +10°C° 0.2 mm 3 mps 469 mmHg 57%
    11:00 +11°C° 0.2 mm 4 mps 470 mmHg 51%
    12:00 +12°C° 0.7 mm 5 mps 469 mmHg 52%
    13:00 +12°C° 0.7 mm 5 mps 469 mmHg 54%
    14:00 +11°C° 0.7 mm 6 mps 469 mmHg 55%
    15:00 +11°C° 0.6 mm 6 mps 468 mmHg 56%
    16:00 +10°C° 0.6 mm 6 mps 468 mmHg 58%
    17:00 +10°C° 0.6 mm 6 mps 468 mmHg 59%
    18:00 +9°C° 0.7 mm 5 mps 467 mmHg 64%
    19:00 +8°C° 0.7 mm 4 mps 467 mmHg 69%
    20:00 +8°C° 0.7 mm 3 mps 467 mmHg 75%
    21:00 +8°C° 0.3 mm 3 mps 468 mmHg 76%
    22:00 +8°C° 0.3 mm 3 mps 468 mmHg 77%
    23:00 +7°C° 0.3 mm 2 mps 468 mmHg 78%

    Day after tomorrow, 19 October, Saturday

    Time Temperature Precipitation Wind Pressure Humidity
    00:00 +7°C° 0.8 mm 2 mps 468 mmHg 79%
    01:00 +7°C° 0.8 mm 2 mps 468 mmHg 81%
    02:00 +6°C° 0.8 mm 2 mps 467 mmHg 82%
    03:00 +6°C° 1 mm 2 mps 467 mmHg 83%
    04:00 +7°C° 1 mm 1 mps 467 mmHg 84%
    05:00 +7°C° 1 mm 1 mps 467 mmHg 85%
    06:00 +7°C° 0.5 mm 1 mps 467 mmHg 84%
    07:00 +7°C° 0.5 mm 1 mps 468 mmHg 83%
    08:00 +6°C° 0.5 mm 2 mps 468 mmHg 81%
    09:00 +7°C° 0.7 mm 2 mps 468 mmHg 77%
    10:00 +7°C° 0.7 mm 2 mps 469 mmHg 72%
    11:00 +8°C° 0.7 mm 2 mps 469 mmHg 67%
    12:00 +8°C° 1 mm 2 mps 468 mmHg 68%
    13:00 +8°C° 1 mm 3 mps 468 mmHg 69%
    14:00 +8°C° 1 mm 3 mps 467 mmHg 70%
    15:00 +9°C° 1.3 mm 2 mps 467 mmHg 67%
    16:00 +9°C° 1.3 mm 2 mps 467 mmHg 64%
    17:00 +9°C° 1.3 mm 2 mps 466 mmHg 61%
    18:00 +8°C° 0.2 mm 2 mps 467 mmHg 64%
    19:00 +8°C° 0.2 mm 2 mps 467 mmHg 67%
    20:00 +7°C° 0.2 mm 2 mps 467 mmHg 70%
    21:00 +7°C° 0 mm 2 mps 467 mmHg 72%
    22:00 +7°C° 0 mm 2 mps 467 mmHg 74%
    23:00 +7°C° 0 mm 2 mps 467 mmHg 75%

    20 October, Sunday

    Time Temperature Precipitation Wind Pressure Humidity
    00:00 +7°C° 0 mm 2 mps 467 mmHg 74%
    01:00 +7°C° 0 mm 1 mps 467 mmHg 73%
    02:00 +7°C° 0 mm 1 mps 466 mmHg 72%
    03:00 +7°C° 0 mm 1 mps 466 mmHg 70%
    04:00 +7°C° 0 mm 1 mps 466 mmHg 68%
    05:00 +7°C° 0 mm 1 mps 466 mmHg 66%
    06:00 +7°C° 0 mm 1 mps 467 mmHg 56%
    07:00 +7°C° 0 mm 2 mps 467 mmHg 47%
    08:00 +8°C° 0 mm 2 mps 468 mmHg 37%
    09:00 +9°C° 0 mm 2 mps 468 mmHg 30%
    10:00 +12°C° 0 mm 2 mps 469 mmHg 23%
    11:00 +13°C° 0 mm 2 mps 470 mmHg 16%
    12:00 +13°C° 0 mm 3 mps 470 mmHg 14%
    13:00 +14°C° 0 mm 3 mps 470 mmHg 13%
    14:00 +15°C° 0 mm 4 mps 470 mmHg 12%
    15:00 +15°C° 0 mm 4 mps 469 mmHg 14%
    16:00 +14°C° 0 mm 5 mps 469 mmHg 16%
    17:00 +14°C° 0 mm 5 mps 468 mmHg 19%
    18:00 +13°C° 0 mm 4 mps 468 mmHg 24%
    19:00 +12°C° 0 mm 3 mps 468 mmHg 29%
    20:00 +12°C° 0 mm 2 mps 468 mmHg 35%
    21:00 +10°C° 0 mm 2 mps 468 mmHg 41%
    22:00 +9°C° 0 mm 2 mps 468 mmHg 48%
    23:00 +9°C° 0 mm 2 mps 468 mmHg 55%

    21 October, Monday

    Time Temperature Precipitation Wind Pressure Humidity
    00:00 +8°C° 0 mm 2 mps 467 mmHg 54%
    01:00 +8°C° 0 mm 2 mps 467 mmHg 54%
    02:00 +8°C° 0 mm 1 mps 466 mmHg 54%
    03:00 +8°C° 0 mm 1 mps 466 mmHg 56%
    04:00 +7°C° 0 mm 1 mps 466 mmHg 57%
    05:00 +7°C° 0 mm 1 mps 466 mmHg 59%
    06:00 +7°C° 0 mm 1 mps 466 mmHg 55%
    07:00 +7°C° 0 mm 2 mps 467 mmHg 51%
    08:00 +7°C° 0 mm 2 mps 468 mmHg 48%
    09:00 +9°C° 0 mm 2 mps 469 mmHg 39%
    10:00 +11°C° 0 mm 3 mps 470 mmHg 31%
    11:00 +12°C° 0 mm 3 mps 471 mmHg 23%
    12:00 +13°C° 0.1 mm 4 mps 471 mmHg 22%
    13:00 +14°C° 0.1 mm 5 mps 471 mmHg 21%
    14:00 +15°C° 0.1 mm 6 mps 471 mmHg 21%
    15:00 +15°C° 0.2 mm 6 mps 470 mmHg 21%
    16:00 +14°C° 0.2 mm 7 mps 469 mmHg 22%
    17:00 +14°C° 0.2 mm 7 mps 469 mmHg 23%
    18:00 +11°C° 0.1 mm 6 mps 468 mmHg 33%
    19:00 +11°C° 0.1 mm 4 mps 468 mmHg 42%
    20:00 +9°C° 0.1 mm 3 mps 467 mmHg 51%
    21:00 +9°C° 0 mm 2 mps 467 mmHg 59%
    22:00 +8°C° 0 mm 2 mps 467 mmHg 67%
    23:00 +7°C° 0 mm 2 mps 467 mmHg 76%

    22 October, Tuesday

    Time Temperature Precipitation Wind Pressure Humidity
    00:00 +8°C° 0 mm 1 mps 467 mmHg 77%
    01:00 +7°C° 0 mm 1 mps 466 mmHg 79%
    02:00 +7°C° 0 mm 1 mps 466 mmHg 80%
    03:00 +6°C° 0 mm 1 mps 466 mmHg 79%
    04:00 +6°C° 0 mm 1 mps 466 mmHg 79%
    05:00 +5°C° 0 mm 0 mps 465 mmHg 78%
    06:00 +6°C° 0 mm 1 mps 466 mmHg 73%
    07:00 +7°C° 0 mm 1 mps 467 mmHg 68%
    08:00 +7°C° 0 mm 1 mps 467 mmHg 63%
    09:00 +9°C° 0 mm 1 mps 468 mmHg 55%
    10:00 +10°C° 0 mm 1 mps 469 mmHg 47%
    11:00 +12°C° 0 mm 2 mps 469 mmHg 38%
    12:00 +12°C° 0.1 mm 3 mps 469 mmHg 37%
    13:00 +13°C° 0.1 mm 3 mps 469 mmHg 37%
    14:00 +13°C° 0.1 mm 4 mps 469 mmHg 36%
    15:00 +12°C° 0.4 mm 4 mps 468 mmHg 41%
    16:00 +11°C° 0.4 mm 4 mps 467 mmHg 47%
    17:00 +9°C° 0.4 mm 5 mps 466 mmHg 52%
    18:00 +8°C° 0.1 mm 4 mps 466 mmHg 59%
    19:00 +7°C° 0.1 mm 4 mps 466 mmHg 65%
    20:00 +6°C° 0.1 mm 4 mps 465 mmHg 71%
    21:00 +7°C° 0 mm 3 mps 466 mmHg 73%
    22:00 +5°C° 0 mm 3 mps 466 mmHg 75%
    23:00 +6°C° 0 mm 2 mps 466 mmHg 77%
    Show more